Other Public Products
Issued by NWS Grand Forks, ND

Home | Current Version | Previous Version | Text Only | Print | Product List | Glossary Off
Versions: 1 2 3 4 5 6 7 8 9 10 11 12 13 14 15 16 17 18 19 20 21 22 23 24 25 26 27 28 29 30 31 32 33 34 35 36 37 38 39 40 41 42 43 44 45 46 47 48 49 50

000
FPUS83 KFGF 111931
OPUFGF
PRAIRIE TO PINES WEATHER ROUNDUP
NATIONAL WEATHER SERVICE EASTERN NORTH DAKOTA/GRAND FORKS ND
100 PM CST THU FEB 11 2016

 **SATELLITE DATA USED TO AUGMENT SKY COVER AT AUTOMATED STATIONS**
 *****  WEATHER ACROSS EASTERN NORTH DAKOTA  *****

CITY           SKY/WX    TMP DP  RH WIND       PRES   REMARKS
GRAND FORKS    CLOUDY    13   4  67 SW8       30.23F WCI   2
GRAND FORKS AF CLOUDY    14   5  67 W5        30.22F WCI   6
GRAND CITY NWS NOT AVBL
BUXTON           N/A     15   4  62 S2          N/A
DEVILS LAKE    FLURRIES  11   6  81 N5        30.19S WCI   3
FARGO          CLOUDY    14  -2  49 SW6       30.23F WCI   5
WAHPETON ARPT  CLOUDY    14   7  73 SE7       30.23S WCI   4
$$

 *****  WEATHER ACROSS CENTRAL AND WESTERN NORTH DAKOTA  *****

CITY           SKY/WX    TMP DP  RH WIND       PRES   REMARKS
JAMESTOWN      CLOUDY    14   9  80 CALM      30.16F
BISMARCK       LGT SNOW  26  18  71 NE7       30.14S WCI  18
MINOT          CLOUDY    20  10  65 N5        30.17S HAZE    WCI  13
MINOT AFB      CLOUDY    19  12  73 N3        30.17S
GARRISON         N/A     19  12  74 VRB3      30.14S
WILLISTON      LGT SNOW  26  19  74 N7        30.16S WCI  18
DICKINSON      LGT SNOW  24  19  81 NE10      30.06R WCI  14
HETTINGER      LGT SNOW  31  28  89 NE5       30.03R FOG
$$

 *****  OTHER OBSERVATIONS NORTHEAST NORTH DAKOTA  *****

CITY           SKY/WX    TMP DP  RH WIND       PRES   REMARKS
WALHALLA       FAIR      14   9  79 N9        30.23S WCI   2
LANGDON        CLOUDY    12   5  73 NW7       30.17S WCI   2
CAVALIER       MOCLDY    14   7  73 N9        30.23S WCI   2
GRAFTON        CLOUDY    12   9  85 W5        30.25S WCI   4
CANDO          CLOUDY    12   7  79 NE6       30.21S WCI   3
FORT TOTTEN    NOT AVBL
ROLLA          CLOUDY    10   5  79 N9        30.17R WCI  -2
RUGBY          MOCLDY    14   7  73 CALM      30.18S
 ***** THE ABOVE OBSERVATIONS ARE NON NWS ARE NOT QUALITY
        CONTROLLED AND MAY MIS-REPORT RAIN FOR SNOW...
$$

 *****  OTHER OBSERVATIONS SOUTHEAST NORTH DAKOTA *****

CITY           SKY/WX    TMP DP  RH WIND       PRES   REMARKS
COOPERSTOWN    NOT AVBL
VALLEY CITY    MOCLDY    10   7  85 S3        30.19F
OAKES          CLOUDY    16  12  86 SE3       30.17F
GWINNER        CLOUDY    16  10  79 E5        30.19F WCI   9
SHEYENNE NWR     N/A     14   4  65 S3        29.95
BUFFALO          N/A     12   2  64 S2          N/A
WYNDMERE         N/A     12   7  79 SE6         N/A  WCI   3
 ***** THE ABOVE OBSERVATIONS ARE NON NWS ARE NOT QUALITY
       CONTROLLED AND MAY MIS-REPORT RAIN FOR SNOW...
$$

  *****  WEATHER ACROSS NORTHERN MINNESOTA  *****

CITY           SKY/WX    TMP DP  RH WIND       PRES   REMARKS
FLAG ISLAND    CLOUDY     3  -4  72 S7        30.16F WCI  -9
WARROAD        SUNNY     10   0  61 SW10G16   30.18F WCI  -3
ROSEAU         SUNNY      9   1  72 W7        30.19F WCI  -3
HALLOCK        LGT SNOW  12   7  79 W6        30.22F WCI   3
THF RVR FALLS  CLOUDY    10   0  61 SW6       30.21F WCI   1
HALSTAD          N/A     14  10  87 CALM        N/A
FOSSTON        CLOUDY    10   0  61 SW5       30.20S WCI   2
BAUDETTE       CLOUDY     9  -6  50 W6        30.16F WCI  -1
WASKISH        CLOUDY     9  -2  61 W6        30.17F WCI  -1
CROOKSTON      CLOUDY    10   3  72 SW5       30.24F WCI   2
$$
  *****  WEATHER ACROSS CENTRAL AND WEST MINNESOTA  *****

CITY           SKY/WX    TMP DP  RH WIND       PRES   REMARKS
BEMIDJI        CLOUDY    10  -4  51 W7        30.17F WCI   0
PARK RAPIDS    CLOUDY    10  -1  61 CALM      30.16F
WADENA         CLOUDY    12   1  62 SW6       30.18F WCI   3
DETROIT LAKES  CLOUDY    14   3  62 SW5       30.19S WCI   6
MOORHEAD       CLOUDY    12   1  62 S5        30.23F WCI   4
FERGUS FALLS   CLOUDY    12   5  73 S6        30.24F WCI   3
ELBOW LAKE     CLOUDY    13   6  72 S9        30.21F HAZE    WCI   1
MORRIS MN      CLOUDY    12   5  73 S8        30.21F WCI   1
STAPLES        CLOUDY    10   0  61 S5        30.19F WCI   2
WHEATON        CLOUDY    16   9  73 SE9       30.23F WCI   4
$$
  *****  WEATHER ELSEWHERE ACROSS MINNESOTA  *****

CITY           SKY/WX    TMP DP  RH WIND       PRES   REMARKS
DULUTH         MOSUNNY    9  -6  50 W10       30.16F WCI  -5
INTRNTL FALLS  PTSUNNY   10  -6  48 W7        30.15F WCI  -1
ELY            SUNNY      9  -4  56 NW8       30.12F WCI  -4
CLOQUET        CLOUDY    10  -9  40 W3        30.17F
BRAINERD       CLOUDY    10  -2  58 SW5       30.21F WCI   2
HIBBING        CLOUDY     8  -8  48 VRB7      30.16F WCI  -3
ALEXANDRIA     FLURRIES  13   4  67 SW10      30.20F WCI   0
SAINT CLOUD    CLOUDY    12  -1  56 S6        30.24F WCI   3
MINNEAPOLIS    CLOUDY    15  -4  42 SW8       30.28F WCI   4
$$

  *****  WEATHER ACROSS SOUTH DAKOTA  *****

CITY           SKY/WX    TMP DP  RH WIND       PRES   REMARKS
SIOUX FALLS    LGT SNOW  17  11  77 S9        30.18F WCI   6
BROOKINGS      LGT SNOW  16  10  79 S10       30.15F WCI   3
WATERTOWN      LGT SNOW  17  12  80 S9        30.13F WCI   6
HURON          LGT SNOW  22  18  85 S8        30.15F FOG     WCI  12
SISSETON         N/A     13   8  81 S6        30.20F WCI   4
ABERDEEN       LGT SNOW  21  16  81 S7        30.17F WCI  12
MITCHELL       LGT SNOW  22  18  85 SE8       30.16F VSB 1   WCI  12
PIERRE         CLOUDY    29  24  82 SE10      30.06F WCI  20
MOBRIDGE       LGT SNOW  26  22  84 SE9       30.07S VSB 1   WCI  17
RAPID CITY     SUNNY     57  25  29 NW40G52   29.99S
$$

  *****  SOME WEATHER IN NEARBY STATES *****

CITY           SKY/WX    TMP DP  RH WIND       PRES   REMARKS
GLASGOW MT     CLOUDY    30  24  78 E7        30.14S WCI  23
GREAT FALLS MT MOSUNNY   56  20  24 W16G22    30.19R
CHEYENNE WY    PTSUNNY   53  22  29 NW23G36   30.14F
SCOTTSBLUFF NE PTSUNNY   58  27  30 NW17      30.11S
OMAHA NE       CLOUDY    21  10  62 S9        30.27F WCI  11
DES MOINES IA  CLOUDY    19   0  43 SE7       30.30F WCI  10
DAVENPORT IA   SUNNY     20   2  45 SW5       30.34F WCI  13
CHICAGO IL     MOSUNNY   18   0  45 VRB7      30.30F WCI   9
EAU CLAIRE WI  CLOUDY    11  -5  48 W7        30.27F WCI   0
LA CROSSE WI   SUNNY     16  -3  43 CALM      30.32F
$$

  *****  SOME NATIONAL WEATHER *****

CITY           SKY/WX    TMP DP  RH WIND       PRES   REMARKS
LA GUARDIA NY  PTSUNNY   26   1  34 W22G35    29.91R WCI  12
RALEIGH NC     MOSUNNY   38   3  23 W14G20    30.16F
ATLANTA GA     SUNNY     51  22  31 CALM      30.12F
NEW ORLEANS LA MOSUNNY   76  53  44 SW15G23   30.17F
OKLAHOMA CITY  MOSUNNY   57  32  38 VRB7      30.16F
ALBUQUERQUE NM SUNNY     56  19  23 VRB3      30.35F
SALT LAKE CITY FOG       30  27  88 N9        30.48R VSB 1   WCI  22
LOS ANGELES CA MOSUNNY   75  40  28 W3        30.12S
BOISE ID       SUNNY     41  31  67 S5        30.39F
SEATTLE WA     CLOUDY    51  46  83 NW5       30.15F
$$

*** WEATHER ACROSS MANITOBA...SASKATCHEWAN AND ONTARIO ***
                ***ONTARIO***

CITY           SKY/WX    TMP DP  RH WIND       PRES   REMARKS
GERALDTON      FLURRIES   3  -8  60 W7        29.96F WCI  -9
THUNDER BAY    PTSUNNY   10  -2  56 W18       30.13F WCI  -8
SIOUX LOOKOUT  FLURRIES   7   0  72 W12       30.04F WCI  -9
TORONTO        MOSUNNY   12  -6  44 NW22G31   30.06R WCI  -7
BIG TROUT LK   CLOUDY   -17 -26  63 NW16G22   29.97F WCI -41
PICKLE LAKE    CRYSTALS   3  -9  55 W15G23    29.92F WCI -15
DRYDEN         CLOUDY     7  -2  66 W14       30.06F WCI -10
KENORA         CLOUDY     7  -2  66 W7        30.11F WCI  -5
$$
                *** MANITOBA***

CITY           SKY/WX    TMP DP  RH WIND       PRES   REMARKS
BRANDON        FLURRIES   9   3  78 NE5       30.23S WCI   0
DAUPHIN        CLOUDY     7   0  72 CALM      30.28F
ISLAND LAKE    FLURRIES -13 -18  77 W13       30.12S WCI -34
PILOT MOUND      N/A      9   3  78 N9          N/A  WCI  -5
THE PAS        MOSUNNY   -2 -11  65 W10       30.31S WCI -19
THOMPSON       PTSUNNY  -13 -22  64 NW16      30.22R WCI -37
WINNIPEG       CLOUDY     5   0  78 W6        30.24F WCI  -6
LYNN LAKE      LGT SNOW -13 -22  64 NW16      30.28R WCI -37
CHURCHILL      CRYSTALS -26 -33  68 NW23G29   30.20R VSB 3/4 WCI -57
GILLAM         SUNNY    -18 -29  57 NW16      30.16R WCI -44
$$
                ***SASKATCHEWAN***

CITY           SKY/WX    TMP DP  RH WIND       PRES   REMARKS
ESTEVAN        CLOUDY    23  14  68 N3        30.18S
KINDERSLEY     CLOUDY    18  12  79 SE8       30.21F WCI   7
LLOYDMINSTER   LGT SNOW  12   9  85 E9        30.24S WCI   0
PRINCE ALBERT  PTSUNNY    9   0  66 NW3       30.34S
REGINA         FLURRIES  18  12  79 N7        30.22R WCI   8
YORKTON        CLOUDY     7   3  85 NW9       30.24S WCC1F1C2F2C3F3C4F4C5F5C6F6C7F7C8F8C9F9CaFaCbFbCcFcCdFdCe!


USA.gov is the U.S. government's official web portal to all federal, state and local government web resources and services.